Starlink 35161

operational
NORAD ID: 65936 Int'l Des: 2025-225 Owner: SPXS Country: US Constellation: starlink
LEOCIRCULAR

关于 Starlink 35161

正在加载描述...

实时位置

正在加载3D地球...

即将过境

高度历史

Altitude vs Time

uPlot chart will show altitude changes over time

两行轨道根数

1 65936U 25225AC 26063.52430896 .00032976 00000-0 11197-2 0 9997
2 65936 53.1601 189.9240 0000989 91.5203 268.5911 15.30223498 22728
Epoch: Mar 4, 2026 • Age: 18 hours

当前状态

高度 476.1 km
速度 7.63 km/s
星下点 28.47°N, 86.1°W
发射日期 Oct 8, 2025
运行时间 0.4 years
类型 internet

技术详情

分类 Payload
质量 575.00 kg
干质量 530.00 kg
总质量 575.00 kg
长度 0.30 m
直径 4.10 m
跨度 29.00 m
形状 Box + pan
制造商 SPXS
平台类型 Starlink V2MO
阶段状态 In Orbit
所有者/国家 SPXS/US

大型星座

Loading constellations...